[[{"header":{"parameterUnit":"m.s-1","parameterCategory":1,"la1":30.2991,"la2":30.254,"lo1":-89.0895,"lo2":-89.0444,"dy":0.0017,"dx":0.0017,"nx":28,"ny":28,"refTime":"2023-09-11T09:00:00:Z","depth":0,"parameterNumber":2,"parameterNumberName":"U-component_of_WINDS"},"data":[0,0,0,0,0,0,0,0,0,0,0,0,0,0,0,0,0,0,0,0,0,0,0,0,0,0,0,0,0,0,0,0,0,0,0,0,0,0,0,0,0,0,0,0,0,0,0,0,0,0,0,0,0,0,0,0,0,0,-1.5893,-1.5893,0,-1.5842,-1.5841,-1.5841,-1.5767,-1.5766,-1.5765,-1.5763,-1.5711,-1.5711,-1.571,0,0,0,0,0,0,0,0,0,0,0,0,0,-1.5926,-1.5926,-1.5893,-1.5893,-1.5892,-1.5842,-1.5841,-1.584,-1.5767,-1.5766,-1.5764,-1.5763,-1.5711,-1.5711,-1.571,0,0,0,0,0,0,0,0,0,0,0,0,0,-1.5897,-1.5926,-1.5894,-1.585,-1.5845,-1.5842,-1.5841,-1.584,-1.5768,-1.5766,-1.5764,-1.5762,-1.5711,-1.5711,-1.571,-1.5746,0,0,-1.5709,-1.5709,0,0,0,0,0,0,0,0,-1.5899,-1.5896,-1.5857,-1.5853,-1.5848,-1.5809,-1.5833,-1.5809,-1.5768,-1.5797,-1.5763,-1.5761,-1.5745,-1.5742,-1.5736,-1.5744,-1.5741,-1.5709,-1.5709,-1.5709,-1.5709,0,0,0,0,0,0,0,-1.5901,-1.5898,-1.5873,-1.5856,-1.5851,-1.5832,-1.5825,-1.5828,-1.5782,-1.5794,-1.5789,-1.5784,-1.5742,-1.5737,-1.5734,-1.5741,-1.5709,-1.5709,-1.5709,-1.5709,-1.577,-1.5772,0,0,0,0,0,0,-1.591,-1.59,-1.5875,-1.5871,-1.5869,-1.5833,-1.5826,-1.5823,-1.5782,-1.5774,-1.5786,-1.5781,-1.5738,-1.5735,-1.5732,-1.5768,-1.5709,-1.5709,-1.5708,-1.5768,-1.577,-1.5772,0,0,0,0,0,0,-1.5911,-1.5908,-1.5877,-1.5884,-1.5879,-1.5834,-1.5832,-1.5823,-1.5818,-1.5775,-1.5767,-1.5789,-1.5737,-1.5733,-1.5742,-1.5766,-1.5708,-1.5708,-1.5766,-1.5769,-1.5771,-1.5843,0,0,0,0,0,0,-1.5912,-1.5909,-1.5923,-1.5885,-1.5879,-1.5888,-1.5834,-1.5824,-1.5817,-1.581,-1.5776,-1.5768,-1.5735,-1.5743,-1.5742,-1.5764,-1.5708,-1.5764,-1.5767,-1.5771,-1.5838,-1.5848,-1.5856,0,0,0,0,0,-1.5914,-1.5946,-1.5924,-1.5921,-1.5895,-1.589,-1.5886,-1.5847,-1.582,-1.5832,-1.5804,-1.5769,-1.5764,-1.5745,-1.5743,-1.5765,-1.5762,-1.5766,-1.577,-1.5834,-1.5846,-1.5855,0,0,0,0,0,0,-1.5989,-1.594,-1.5916,-1.5937,-1.5918,-1.5878,-1.5893,-1.5861,-1.585,-1.5844,-1.5795,-1.5788,-1.5803,-1.5785,-1.5765,-1.5795,-1.5757,-1.5761,-1.5806,-1.5817,-1.5826,-1.5829,-1.5708,0,0,0,0,0,-1.6008,-1.6008,-1.5966,-1.5989,-1.598,-1.5938,-1.5935,-1.5906,-1.5884,-1.5876,-1.5849,-1.5829,-1.5822,-1.5819,-1.5811,-1.5835,-1.5825,-1.5849,-1.5858,-1.5866,-1.5869,-1.5877,-1.5887,-1.5786,-1.5786,-1.5786,0,0,-1.6047,-1.6021,-1.6024,-1.6003,-1.5985,-1.5985,-1.5932,-1.5935,-1.5934,-1.5876,-1.5882,-1.5862,-1.5836,-1.5853,-1.5859,-1.5838,-1.5895,-1.5871,-1.5877,-1.5877,-1.5882,-1.5892,-1.5901,-1.5789,-1.5788,-1.5788,0,0,-1.6119,-1.61,-1.6115,-1.6097,-1.607,-1.6041,-1.6045,-1.6009,-1.5992,-1.5998,-1.5953,-1.5951,-1.5942,-1.5924,-1.5914,-1.5975,-1.5941,-1.5974,-1.6019,-1.6028,-1.6036,-1.6042,-1.6061,-1.6069,-1.5978,-1.5978,-1.5978,0,-1.6171,-1.617,-1.6127,-1.6132,-1.6122,-1.6069,-1.6083,-1.6068,-1.604,-1.6034,-1.6011,-1.5995,-1.5975,-1.5984,-1.5999,-1.5994,-1.5994,-1.5977,-1.6038,-1.6044,-1.605,-1.6067,-1.6075,-1.5982,-1.5981,-1.5981,-1.5981,0,-1.6234,-1.6233,-1.6249,-1.6221,-1.6214,-1.6224,-1.6181,-1.6178,-1.6149,-1.6123,-1.6127,-1.61,-1.6083,-1.6084,-1.6057,-1.6089,-1.6076,-1.6047,-1.6007,-1.6064,-1.608,-1.6086,-1.5987,-1.5986,-1.5985,-1.5984,0,0,-1.6352,-1.6299,-1.6305,-1.629,-1.6255,-1.6253,-1.6259,-1.6242,-1.6239,-1.6221,-1.6223,-1.6215,-1.6186,-1.6175,-1.6145,-1.6152,-1.6198,-1.6121,-1.612,-1.6134,-1.6228,-1.6249,-1.6258,-1.6176,-1.6177,-1.6178,-1.6229,0,-1.6414,-1.6421,-1.6382,-1.6399,-1.6396,-1.6344,-1.6348,-1.6327,-1.6301,-1.6294,-1.6266,-1.626,-1.6224,-1.6216,-1.6222,-1.6192,-1.6216,-1.6188,-1.6176,-1.6176,-1.6182,-1.6266,-1.6289,-1.6338,-1.6235,-1.6236,-1.6237,0,-1.6489,-1.6473,-1.6489,-1.645,-1.6447,-1.6452,-1.6431,-1.6426,-1.6399,-1.638,-1.6366,-1.633,-1.6331,-1.6295,-1.6294,-1.6275,-1.6268,-1.6252,-1.6253,-1.6249,-1.6209,-1.6262,-1.6354,-1.636,-1.6247,-1.6246,-1.6245,0,-1.6569,-1.6552,-1.6559,-1.6548,-1.6504,-1.6507,-1.6489,-1.646,-1.6451,-1.6433,-1.6427,-1.641,-1.64,-1.6387,-1.6347,-1.6324,-1.6349,-1.631,-1.6332,-1.6333,-1.6338,-1.6338,-1.6428,-1.6338,-1.6337,-1.6337,-1.6337,0,-1.6642,-1.6654,-1.6594,-1.6598,-1.6608,-1.6562,-1.6573,-1.6549,-1.6524,-1.6521,-1.6475,-1.6473,-1.6422,-1.6414,-1.6383,-1.6385,-1.6382,-1.6364,-1.6356,-1.6367,-1.6369,-1.6361,-1.6355,-1.6339,-1.6339,-1.6338,-1.6338,0,-1.6734,-1.6695,-1.6698,-1.6654,-1.6644,-1.6653,-1.6615,-1.6616,-1.6587,-1.6583,-1.658,-1.6534,-1.6522,-1.6481,-1.6459,-1.6438,-1.6449,-1.6434,-1.6458,-1.6452,-1.6474,-1.6472,-1.656,-1.6568,-1.6475,-1.6476,-1.6477,0,-1.6782,-1.6789,-1.6746,-1.674,-1.6723,-1.6716,-1.6706,-1.666,-1.6651,-1.6619,-1.6623,-1.6607,-1.6591,-1.6574,-1.6538,-1.652,-1.6503,-1.6535,-1.65,-1.651,-1.65,-1.6499,-1.6498,-1.6542,-1.6543,-1.6544,-1.6545,0,-1.6871,-1.685,-1.6838,-1.6818,-1.6807,-1.6789,-1.6769,-1.6767,-1.6715,-1.6708,-1.6694,-1.6682,-1.6658,-1.6641,-1.6617,-1.6596,-1.6561,-1.6556,-1.656,-1.6571,-1.6583,-1.6574,-1.6476,-1.6554,-1.6553,-1.6553,-1.6552,-1.6552,-1.694,-1.6942,-1.6911,-1.6898,-1.6878,-1.6859,-1.6856,-1.6826,-1.6814,-1.679,-1.6764,-1.6753,-1.6722,-1.6686,-1.6667,-1.6657,-1.6638,-1.6644,-1.6645,-1.6647,-1.6651,-1.6586,-1.6653,-1.6652,-1.6652,-1.6652,-1.6651,0,-1.7023,-1.7,-1.6989,-1.696,-1.6949,-1.6917,-1.6892,-1.6885,-1.6875,-1.685,-1.6835,-1.6817,-1.68,-1.6762,-1.6741,-1.674,-1.6723,-1.6736,-1.6734,-1.6729,-1.667,-1.6668,-1.675,-1.675,-1.675,-1.675,-1.675,-1.675,-1.7065,-1.7067,-1.7042,-1.7032,-1.7009,-1.6997,-1.6985,-1.6966,-1.6945,-1.6928,-1.6913,-1.6888,-1.6857,-1.6833,-1.6815,-1.6804,-1.6797,-1.6815,-1.6799,-1.6744,-1.6734,-1.6725,-1.6723,-1.6814,-1.6814,-1.6858,-1.6858,-1.6859]},{"header":{"parameterUnit":"m.s-1","parameterCategory":1,"la1":30.2991,"la2":30.254,"lo1":-89.0895,"lo2":-89.0444,"dy":0.0017,"dx":0.0017,"nx":28,"ny":28,"refTime":"2023-09-11T09:00:00:Z","depth":0,"parameterNumber":3,"parameterNumberName":"V-component_of_WINDS"},"data":[0,0,0,0,0,0,0,0,0,0,0,0,0,0,0,0,0,0,0,0,0,0,0,0,0,0,0,0,0,0,0,0,0,0,0,0,0,0,0,0,0,0,0,0,0,0,0,0,0,0,0,0,0,0,0,0,0,0,-1.7873,-1.7873,0,-1.7907,-1.7907,-1.7908,-1.7921,-1.792,-1.792,-1.792,-1.7951,-1.7952,-1.7953,0,0,0,0,0,0,0,0,0,0,0,0,0,-1.7815,-1.7816,-1.7873,-1.7873,-1.7874,-1.7907,-1.7907,-1.7908,-1.7921,-1.792,-1.792,-1.792,-1.7951,-1.7952,-1.7953,0,0,0,0,0,0,0,0,0,0,0,0,0,-1.7843,-1.7816,-1.7873,-1.7884,-1.7886,-1.7907,-1.7907,-1.7908,-1.7921,-1.792,-1.792,-1.792,-1.795,-1.7952,-1.7953,-1.7964,0,0,-1.7957,-1.7958,0,0,0,0,0,0,0,0,-1.7842,-1.7845,-1.7882,-1.7883,-1.7885,-1.7909,-1.7898,-1.7926,-1.7921,-1.7907,-1.792,-1.792,-1.7937,-1.7939,-1.7946,-1.7965,-1.7967,-1.7957,-1.7958,-1.7959,-1.7959,0,0,0,0,0,0,0,-1.784,-1.7844,-1.7886,-1.7883,-1.7884,-1.7886,-1.789,-1.7903,-1.7922,-1.7908,-1.7909,-1.7913,-1.7938,-1.7945,-1.7947,-1.7967,-1.7957,-1.7958,-1.7959,-1.796,-1.7996,-1.7996,0,0,0,0,0,0,-1.7836,-1.7842,-1.7885,-1.7887,-1.7863,-1.7887,-1.7892,-1.7902,-1.7922,-1.7925,-1.7913,-1.7914,-1.7942,-1.7945,-1.7948,-1.7962,-1.7959,-1.796,-1.7961,-1.7996,-1.7996,-1.7997,0,0,0,0,0,0,-1.7835,-1.784,-1.7884,-1.7865,-1.7871,-1.7888,-1.7899,-1.7902,-1.7909,-1.7926,-1.7929,-1.7917,-1.7942,-1.7946,-1.796,-1.7963,-1.7961,-1.7962,-1.7996,-1.7996,-1.7996,-1.799,0,0,0,0,0,0,-1.7833,-1.784,-1.7845,-1.7865,-1.7872,-1.7897,-1.79,-1.7903,-1.7912,-1.7913,-1.7931,-1.7933,-1.7943,-1.7958,-1.7961,-1.7965,-1.7963,-1.7996,-1.7996,-1.7996,-1.799,-1.799,-1.799,0,0,0,0,0,-1.7831,-1.7841,-1.7845,-1.785,-1.7879,-1.7897,-1.79,-1.7912,-1.7912,-1.7917,-1.7928,-1.7933,-1.7962,-1.7959,-1.7963,-1.7967,-1.7996,-1.7996,-1.7996,-1.799,-1.799,-1.799,0,0,0,0,0,0,-1.782,-1.7844,-1.7849,-1.7866,-1.7879,-1.7899,-1.7906,-1.7912,-1.7924,-1.7924,-1.7937,-1.7941,-1.7953,-1.7962,-1.7958,-1.7978,-1.7979,-1.798,-1.7973,-1.7973,-1.7973,-1.797,-1.7964,0,0,0,0,0,-1.7819,-1.7833,-1.7853,-1.7866,-1.7872,-1.7888,-1.7896,-1.7904,-1.7917,-1.7923,-1.7935,-1.7947,-1.7958,-1.7966,-1.7978,-1.7991,-1.7994,-1.7995,-1.7995,-1.7995,-1.7996,-1.8003,-1.8003,-1.7998,-1.7998,-1.7998,0,0,-1.7818,-1.7833,-1.7841,-1.7864,-1.7875,-1.7888,-1.7892,-1.7906,-1.7914,-1.7924,-1.7939,-1.7947,-1.7962,-1.7975,-1.7981,-1.7982,-1.7998,-1.7996,-1.7995,-1.7996,-1.8003,-1.8003,-1.8004,-1.7998,-1.7998,-1.7998,0,0,-1.7823,-1.7836,-1.7848,-1.7859,-1.7877,-1.7887,-1.789,-1.7908,-1.7915,-1.793,-1.7937,-1.7947,-1.7968,-1.7977,-1.7985,-1.7992,-1.7997,-1.7996,-1.7995,-1.8002,-1.8002,-1.8003,-1.8005,-1.8005,-1.7996,-1.7996,-1.7996,0,-1.7819,-1.784,-1.7853,-1.7866,-1.7875,-1.7886,-1.7897,-1.7907,-1.7927,-1.7932,-1.7933,-1.7959,-1.7969,-1.7985,-1.7986,-1.7992,-1.7995,-1.7994,-1.8001,-1.8002,-1.8002,-1.8004,-1.8005,-1.7996,-1.7996,-1.7996,-1.7996,0,-1.7834,-1.7848,-1.7855,-1.7875,-1.7885,-1.7897,-1.7911,-1.7919,-1.7926,-1.7935,-1.7949,-1.7962,-1.7976,-1.7981,-1.7987,-1.7997,-1.7996,-1.7999,-1.8,-1.8002,-1.8005,-1.8006,-1.7996,-1.7996,-1.7996,-1.7996,0,0,-1.7833,-1.786,-1.7862,-1.7871,-1.7891,-1.7901,-1.7913,-1.7928,-1.7935,-1.7948,-1.7957,-1.7974,-1.7976,-1.7985,-1.7992,-1.7997,-1.8002,-1.7999,-1.8,-1.7999,-1.8013,-1.8011,-1.8011,-1.8005,-1.8005,-1.8005,-1.8011,0,-1.784,-1.7863,-1.7875,-1.7892,-1.7905,-1.7914,-1.7924,-1.7937,-1.7945,-1.7956,-1.7965,-1.7977,-1.7979,-1.7985,-1.799,-1.8,-1.8005,-1.8,-1.8013,-1.8013,-1.8009,-1.8013,-1.8011,-1.8016,-1.8012,-1.8012,-1.8013,0,-1.7851,-1.7865,-1.7884,-1.7902,-1.7908,-1.7917,-1.7931,-1.7942,-1.7955,-1.7961,-1.797,-1.7977,-1.7989,-1.7989,-1.8004,-1.8,-1.8006,-1.8011,-1.8011,-1.8013,-1.8013,-1.8014,-1.8018,-1.8018,-1.8014,-1.8014,-1.8014,0,-1.7848,-1.7871,-1.7886,-1.7893,-1.7914,-1.792,-1.7929,-1.7943,-1.7951,-1.7963,-1.7968,-1.7981,-1.7988,-1.7997,-1.8006,-1.8006,-1.802,-1.8021,-1.8024,-1.8024,-1.8027,-1.8027,-1.8032,-1.8031,-1.8031,-1.8031,-1.8031,0,-1.7855,-1.7866,-1.7885,-1.7894,-1.7906,-1.7918,-1.793,-1.7939,-1.7951,-1.796,-1.7969,-1.7977,-1.799,-1.8,-1.8007,-1.8018,-1.8021,-1.8025,-1.8027,-1.8024,-1.8024,-1.8028,-1.8028,-1.8031,-1.8031,-1.8031,-1.8031,0,-1.7853,-1.7867,-1.7883,-1.7902,-1.7907,-1.7915,-1.793,-1.7938,-1.7947,-1.7959,-1.7963,-1.7976,-1.7988,-1.7999,-1.8014,-1.8019,-1.803,-1.8032,-1.8026,-1.8027,-1.8029,-1.8029,-1.8037,-1.8039,-1.8037,-1.8037,-1.8037,0,-1.7857,-1.7866,-1.7886,-1.7893,-1.7902,-1.7914,-1.7923,-1.7935,-1.7944,-1.7959,-1.7965,-1.7978,-1.7989,-1.8007,-1.8017,-1.8029,-1.8031,-1.8033,-1.8033,-1.803,-1.8031,-1.803,-1.8031,-1.8033,-1.8033,-1.8033,-1.8033,0,-1.7861,-1.7867,-1.788,-1.7895,-1.7905,-1.7917,-1.7929,-1.7935,-1.7949,-1.7957,-1.797,-1.7979,-1.7995,-1.8007,-1.8019,-1.8027,-1.8032,-1.8033,-1.8035,-1.8032,-1.8028,-1.803,-1.8025,-1.8033,-1.8033,-1.8033,-1.8033,-1.8033,-1.7862,-1.787,-1.7886,-1.7899,-1.791,-1.7921,-1.7929,-1.794,-1.7951,-1.7966,-1.7972,-1.7985,-1.7997,-1.8015,-1.8022,-1.8031,-1.8032,-1.8034,-1.8035,-1.8035,-1.8034,-1.8026,-1.8033,-1.8033,-1.8033,-1.8033,-1.8033,0,-1.7867,-1.7877,-1.789,-1.7907,-1.7917,-1.7922,-1.7936,-1.7944,-1.7955,-1.7967,-1.7977,-1.7991,-1.8003,-1.8015,-1.8026,-1.8031,-1.8034,-1.8034,-1.8034,-1.8035,-1.8033,-1.8031,-1.8032,-1.8032,-1.8032,-1.8032,-1.8032,-1.8032,-1.787,-1.7884,-1.7892,-1.7911,-1.7921,-1.7934,-1.7942,-1.7951,-1.796,-1.7976,-1.7987,-1.7994,-1.8005,-1.8018,-1.8028,-1.8031,-1.8035,-1.8035,-1.8038,-1.8035,-1.8036,-1.8036,-1.8033,-1.8035,-1.8035,-1.804,-1.804,-1.804]}]]